Погода Нижний Новгород

Погода Нижний Новгород : погода сейчас, прогноз погоды и архив. Всё, что Вы хотите узнать о погоде Нижний Новгород!

Хотите узнать прогноз погоды в Нижнем Новгороде? Тогда Вам сюда: Погода в Нижнем Новгороде

Поиск расширенной информации на нашем сайте:

Другие новости

Новости СМИ2

Главная страница сайта

Новости сайта

03.07.2017

Напоминаем, что на нашем специализированном сайте Метеоцентр.Азия вы можете получить высокодетализированные автоматические прогнозы погоды по пунктам России, СНГ и мира в авиационном формате (включающие направление и скорость ветра, видимость, явления погоды, количество и форму облачности, нижнюю и верхнюю границу облачности).

Рекомендуем: Пуллер макси для собак: puller maxi игрушка для собак пуллер макси.

Погода Нижний Новгород - сегодня

Время (UTC), дата Ветер
(°,м/с) 
Видим.   Явления Облачность Т
(°С)
Тd
(°С)
f(%) Тe
(°С)
Pmin
(гПа)
dP
(гПа)
Po
(мм)
O2
(г/м3)
Тmin Tmax R s Состояние
почвы
18 17.11.17 250 (З) 2-5{07}  10 км  {ливн. осадки}  9/9 600 м кучево-дожд. 
[Cb cap]
+1 -1.9 81 1018.9  -1  749  301           
21 17.11.17 240 (ЮЗ) 2-6{11}  10 км    9/8 1000 м средняя 
[Sc|As trans]
+0.1 -3.8 75 -1  1018.1  -0.9  749  302           
00 18.11.17 230 (ЮЗ) 2-5{08}  10 км    9/8 1000 м средняя 
[Sc|Ac trans]
-0.2 -2.9 82 -1  1017  -1.1  748  302           
03 18.11.17 230 (ЮЗ) 2-7{08}  10 км    9/4 1000 м средняя 
[Sc diur, vesp|Ac As]
+0.4 -2.4 81 1016  -0.9  747  301  -0.2    0.0  <0.5  мокрый или
старый снег
50-90% 
06 18.11.17 230 (ЮЗ) 1-6{09}  4000 м  слаб. ливневой снег  10/10 300 м кучево-дожд. 
[Cb cap]
+0.8 -1.6 84 +1  1016.4  0.4  748  300           
09 18.11.17 230 (ЮЗ) 2-5{07}  10 км  {ливн. осадки}  10/10 600 м 
[Sc]
+1.3 -0.7 86 +1  1017.4  748  300           
12 18.11.17 230 (ЮЗ) 2-5{06}  10 км  {ливн. осадки}  10/10 600 м 
[Sc]
+1.6 +0 89 +1  1017.6  0.2  748  300           
15 18.11.17 230 (ЮЗ) 1-4{07}  10 км    10/10 600 м 
[Sc]
+1.7 -0.8 83 +2  1018.4  0.8  749  300    +1.8  0.0     
18 18.11.17 190 (Ю) 1-3{05}  10 км    10/10 600 м 
[Sc]
+1.6 -0.3 87 +2  1018.3  -0.1  749  300           
21 18.11.17 220 (ЮЗ) 1-3{05}  10 км    10/10 600 м 
[Sc]
+1.4 -0.3 88 +2  1018.1  -0.2  749  300           
00 19.11.17 190 (Ю) 1-4{06}  10 км    9/9 1000 м 
[Sc]
+1.2 -1.1 85 +2  1017.6  -0.5  748  300           
03 19.11.17 180 (Ю) 2-4{06}  10 км    10/10 600 м 
[Sc]
+1.3 -0.1 90 +1  1016.6  -0.9  748  300  +1.1         
06 19.11.17 180 (Ю) 2-5{05}  4000 м  слаб. снег{дождь}  10/10 300 м 
[Frnb]
+0.7 +0.1 96 1016.6  -0.1  748  300  +0.7         
09 19.11.17 180 (Ю) 2-4{06}  10 км  {снег}  10/10 300 м 
[Sc]
+1.1 -0.3 90 1016.4  -0.1  748  300           
12 19.11.17 140 (ЮВ) 2-3{05}  3900 м  слаб. снег  10/10 200 м 
[Frnb]
+0.6 -0.2 94 1015.1  -1.3  747  300           
15 19.11.17 160 (Ю) 2-4{06}  10 км  {снег}  10/10 200 м 
[Sc]
+0.9 +0.1 94 1014.4  -0.7  746  300    +1.3     
18 19.11.17 150 (ЮВ) 2-4{06}  4000 м  слаб. снег  10/10 200 м 
[Frnb|Ns]
+0.8 +0.3 96 1013.3  -1.1  745  299           
21 19.11.17 150 (ЮВ) 1-4{05}  4000 м  слаб. снег  10/10 200 м 
[Frnb|Ns]
+0.4 -0.2 96 +1  1012.3  -1.1  744  300           
00 20.11.17 150 (ЮВ) 2-3{07}  4000 м  слаб. дождь{снег}  10/10 200 м 
[Frnb|Ns]
+0.9 +0.4 96 1010.7  -1.4  743  298           
03 20.11.17 170 (Ю) 1-3{05}  4000 м  слаб. снег{дождь}  10/10 200 м 
[Frnb|Ns]
+1.7 +1.4 98 +2  1010.2  -0.5  743  297  +0.4       
06 20.11.17 210 (ЮЗ) 1-2{05}  10 км  в посл. час дождь со снегом  10/10 300 м 
[Frnb]
+2.8 +2.3 97 +4  1010.8  0.7  744  296           
09 20.11.17 270 (З) 3-7{07}  10 км    10/10 300 м 
[Frnb]
+2.3 +1 91 +1  1012.7  1.7  745  297           
12 20.11.17 270 (З) 2-4{07}  10 км    10/10 300 м 
[Frnb]
+2.3 +0.1 85 +2  1013.8  1.1  746  298           
15 20.11.17 тихо () -0{04}  10 км    10/10 300 м 
[St]
+1.9 +0 87 +2  1014.3  0.5  746  298    +3.2  0.0     
18 20.11.17 040 (СВ) 1-2{02}  10 км    10/10 300 м 
[St]
+1.6 +0.2 90 +2  1013.9  -0.4  746  299           
Время (UTC), дата Ветер
(°,м/с) 
Видим.   Явления Облачность Т
(°С)
Тd
(°С)
f(%) Тe
(°С)
Pmin
(гПа)
dP
(гПа)
Po
(мм)
O2
(г/м3)
Тmin Tmax R s Состояние
почвы

Для получения пояснительной информации подведите курсор к названию столбца.

ПОГОДА Нижний Новгород - архив

Всё, что Вы хотите узнать о погоде Нижний Новгород - удобно и подробно!

Выберите нужную дату (начиная с 1 января 2015* года) и нажмите кнопку "Найти".
Будут отображены архивные сводки погоды по пункту Нижний Новгород, начиная с указанной даты.


Отображать данные в формате CSV (для использования в таблицах Excel)


Внимание! Наш архив погоды предназначен исключительно для личного некоммерческого использования в познавательных целях. Если Вам необходимы официальные справки о состоянии погоды (для производственных, юридических, коммерческих и т.п. целей), обращайтесь в органы Росгидромета.

*Примечание: данная дата относится к архиву по метеостанциям СССР (Россия, СНГ, Балтия).
Архив по метеостанциям Зарубежной Европы и Азии (кроме Китая) хранится 10 дней, по другим регионам земного шара (Китай, Африка, Америка, Австралия, Океания) - 1 день.

Нижний Новгород - район местоположения метеостанции


Название, широта, долгота, высота метеостанции:
Нижний Новгород (Мыза) 56.3°ш. 44°д. 157 м над ур. моря [Российская Федерация]

Дополнительная информация

В oтличие oт бoльшинства пoгoдных сайтoв мы публикуем пoдрoбную метеoинфoрмацию в детальнoм прoфессиoнальнoм фoрмате.

Характеристики температуры и влажнoсти вoздуха измеряются на высoте 2 м в тени вдали oт зданий и деревьев.
Скoрoсть ветра измеряется на высoте 10 м (на урoвне рoста челoвека скoрoсть ветра ниже в 1.5-2 раза). Если метеoстанция нахoдится в гoрoде или в лесу, тo скoрoсть ветра занижена на 2-4 м/с пo сравнению с oткрытым местoм. Скoрoсть ветра над акватoриями крупных рек и oзёр, а также на вершинах хoлмoв на 2-5 м/с выше, чем в oбычных услoвиях.
Атмoсфернoе давление в разных тoчках местнoсти мoжет значительнo oтличаться oт давления на метеoстанции, в зависимoсти oт услoвий рельефа (при пoдъёме на 10 м давление пoнижается примернo на 1 мм рт.ст.).